Regional Weather Roundup
Issued by NWS Little Rock, AR

Home | Current Version | Previous Version | Graphics & Text | Print | Product List | Glossary On
Versions: 1 2 3 4 5 6 7 8 9 10 11 12 13 14 15 16 17 18 19 20 21 22 23 24 25 26 27 28 29 30 31 32 33 34 35 36 37 38 39 40 41 42 43 44 45 46 47 48 49 50
563
ASUS44 KLZK 231812
RWRLZK

WEATHER ROUNDUP FOR ARKANSAS
NATIONAL WEATHER SERVICE LITTLE ROCK AR
1200 PM CST THU FEB 23 2017

NOTE: "FAIR" INDICATES FEW OR NO CLOUDS BELOW 12,000 FEET WITH NO
SIGNIFICANT WEATHER AND/OR OBSTRUCTIONS TO VISIBILITY.

ARZ001-003-010-029-231900-
NORTHWEST ARKANSAS

CITY           SKY/WX    TMP DP  RH WIND       PRES   REMARKS
FAYETTEVILLE   SUNNY     76  50  40 S12G23    29.57F
6HR MIN TEMP:  49; 6HR MAX TEMP:  76;

FORT SMITH     SUNNY     75  55  49 NE8       29.57F
6HR MIN TEMP:  54; 6HR MAX TEMP:  75;

HARRISON       SUNNY     75  50  41 S20G25    29.62F
6HR MIN TEMP:  51; 6HR MAX TEMP:  75;

BENTONVILLE    SUNNY     77  48  36 S17G23    29.57F
6HR MIN TEMP:  55; 6HR MAX TEMP:  77;

ROGERS         SUNNY     78  50  37 S23       29.56F
6HR MIN TEMP:  53; 6HR MAX TEMP:  78;

SILOAM SPGS    SUNNY     75  48  38 S22G28    29.55F
6HR MIN TEMP:  55; 6HR MAX TEMP:  75;

HIGHFILL       SUNNY     78  49  35 S22       29.55F
6HR MIN TEMP:  53; 6HR MAX TEMP:  78;

SPRINGDALE     SUNNY     77  48  36 S15G23    29.58F
$$

ARZ004-005-016-231900-
NORTH CENTRAL ARKANSAS

CITY           SKY/WX    TMP DP  RH WIND       PRES   REMARKS
BATESVILLE     SUNNY     70  57  64 S8        29.72F
6HR MIN TEMP:  54; 6HR MAX TEMP:  70;

FLIPPIN        SUNNY     73  52  46 S10G22    29.62F
6HR MIN TEMP:  46; 6HR MAX TEMP:  73;

MTN HOME       SUNNY     74  52  46 SW16G25   29.64F
6HR MIN TEMP:  50; 6HR MAX TEMP:  74;

$$

ARZ040-041-231900-
WEST CENTRAL ARKANSAS

CITY           SKY/WX    TMP DP  RH WIND       PRES   REMARKS
MENA           SUNNY     75  52  43 S8G17     29.66F
MOUNT IDA      SUNNY     74  50  42 MISG      29.65F
6HR MIN TEMP:  47; 6HR MAX TEMP:  74;

$$

ARZ009-017-025-026-028-231900-
NORTHEAST ARKANSAS

CITY           SKY/WX    TMP DP  RH WIND       PRES   REMARKS
CORNING        MOCLDY    68  61  77 S16G23    29.73F
JONESBORO      MOSUNNY   70  58  65 S17       29.74F
6HR MIN TEMP:  53; 6HR MAX TEMP:  70;

NEWPORT        SUNNY     70  58  65 S21         N/A
6HR MIN TEMP:  50; 6HR MAX TEMP:  70;

WALNUT RIDGE   SUNNY     68  55  64 S20       29.73F
6HR MIN TEMP:  52; 6HR MAX TEMP:  68; 6HR PCP:  0.01;

BLYTHEVILLE    MOSUNNY   71  57  61 SW17G25   29.75F
6HR MIN TEMP:  53; 6HR MAX TEMP:  72;

NW BLYTHEVILLE PTSUNNY   72  59  64 S17G24    29.75
$$

ARZ022-023-033-042-044-231900-
CENTRAL ARKANSAS

CITY           SKY/WX    TMP DP  RH WIND       PRES   REMARKS
LITTLE ROCK    MOSUNNY   73  59  61 S15       29.72F
6HR MIN TEMP:  49; 6HR MAX TEMP:  73;

N LITTLE ROCK    N/A     71  60  67 S9G18     29.73F
6HR MIN TEMP:  52; 6HR MAX TEMP:  71;

JACKSONVILLE   SUNNY     72  61  69 S10G20    29.71F
6HR MIN TEMP:  49; 6HR MAX TEMP:  72;

SEARCY         SUNNY     72  60  66 S15       29.73
6HR MIN TEMP:  49; 6HR MAX TEMP:  72;

HOT SPRINGS    SUNNY     72  54  53 S12G17    29.71F
6HR MIN TEMP:  50; 6HR MAX TEMP:  72;

RUSSELLVILLE   SUNNY     71  57  61 SE8       29.66F
6HR MIN TEMP:  52; 6HR MAX TEMP:  72;

CLINTON        FAIR      72  59  64 S8G18     29.69F
$$

ARZ036-231900-
EAST ARKANSAS

CITY           SKY/WX    TMP DP  RH WIND       PRES   REMARKS
WEST MEMPHIS   MOSUNNY   72  59  63 S16G22    29.75F
6HR MIN TEMP:  51; 6HR MAX TEMP:  72;

$$

ARZ050-053-066-070-073-231900-
SOUTHWEST ARKANSAS

CITY           SKY/WX    TMP DP  RH WIND       PRES   REMARKS
ARKADELPHIA    FAIR      74  58  57 S14       29.72F
6HR MIN TEMP:  47; 6HR MAX TEMP:  74;

CAMDEN         SUNNY     77  54  44 S13G18    29.73F
TEXARKANA      SUNNY     75  51  43 S17G23    29.69F
6HR MIN TEMP:  55; 6HR MAX TEMP:  75;

EL DORADO      SUNNY     75  59  57 S16G22    29.75F
6HR MIN TEMP:  50; 6HR MAX TEMP:  75;

DE QUEEN       SUNNY     76  52  43 S14       29.65F
6HR MIN TEMP:  47; 6HR MAX TEMP:  76;

$$

ARZ056-057-069-231900-
SOUTHEAST ARKANSAS

CITY           SKY/WX    TMP DP  RH WIND       PRES   REMARKS
PINE BLUFF     SUNNY     72  58  61 S14       29.75F
6HR MIN TEMP:  48; 6HR MAX TEMP:  72;

STUTTGART      SUNNY     72  54  53 S14       29.75F
6HR MIN TEMP:  54; 6HR MAX TEMP:  72;

MONTICELLO     SUNNY     73  57  57 S8        29.76F
6HR MIN TEMP:  52; 6HR MAX TEMP:  73;


$$






USA.gov is the U.S. government's official web portal to all federal, state and local government web resources and services.